DHK545 EDDF-EGKK

Flight info

Callsign DHK545
Flight time N/A
Altitude 34000
Route OBOKA5G/25C OBOKA Z29 TORNU DCT BREDA DCT VICOT DCT GALSO Q63 ARREK Y4 TEBRA DCT ABTUM DCT ARNUN DCT LARCK
Aircraft B77L/H-SDE1E2E3FGHIJ2J3J4J5M1RWXY/LB1D1

Departure

Time 2026-05-03 20:40
Airport Frankfurt Main Airport (EDDF)

Arrival

Time N/A
Airport London Gatwick Airport (EGKK)
Time Latitude Longitude Altitude Speed Heading
2026-05-03 20:24 50.03169 8.58317 367 ft 0 kts 114°
2026-05-03 20:30 50.03170 8.58314 367 ft 0 kts 114°
2026-05-03 20:31 50.03170 8.58312 367 ft 2 kts 114°
2026-05-03 20:31 50.03177 8.58286 367 ft 3 kts 114°
2026-05-03 20:31 50.03185 8.58258 365 ft 3 kts 90°
2026-05-03 20:31 50.03181 8.58229 369 ft 3 kts 66°
2026-05-03 20:32 50.03173 8.58203 367 ft 3 kts 66°
2026-05-03 20:32 50.03171 8.58195 366 ft 0 kts 66°
2026-05-03 20:35 50.03172 8.58197 367 ft 1 kts 66°
2026-05-03 20:35 50.03185 8.58221 369 ft 4 kts 32°
2026-05-03 20:35 50.03223 8.58224 368 ft 8 kts 355°
2026-05-03 20:36 50.03289 8.58212 367 ft 11 kts 350°
2026-05-03 20:36 50.03377 8.58175 367 ft 15 kts 340°
2026-05-03 20:36 50.03485 8.58114 364 ft 18 kts 340°
2026-05-03 20:36 50.03542 8.58086 367 ft 7 kts 348°
2026-05-03 20:37 50.03604 8.58080 364 ft 11 kts 358°
2026-05-03 20:37 50.03690 8.58054 366 ft 14 kts 341°
2026-05-03 20:37 50.03794 8.57997 363 ft 18 kts 341°
2026-05-03 20:37 50.03918 8.57927 367 ft 20 kts 340°
2026-05-03 20:38 50.04050 8.57890 367 ft 20 kts 27°
2026-05-03 20:38 50.04117 8.58089 365 ft 22 kts 68°
2026-05-03 20:38 50.04179 8.58328 367 ft 25 kts 68°
2026-05-03 20:38 50.04240 8.58578 368 ft 12 kts 61°
2026-05-03 20:39 50.04320 8.58619 366 ft 13 kts
2026-05-03 20:39 50.04410 8.58639 361 ft 14 kts
2026-05-03 20:39 50.04486 8.58618 362 ft 8 kts 287°
2026-05-03 20:39 50.04467 8.58527 369 ft 10 kts 249°
2026-05-03 20:40 50.04395 8.58227 368 ft 71 kts 250°
2026-05-03 20:40 50.04098 8.56997 368 ft 169 kts 248°
2026-05-03 20:40 50.03635 8.55088 923 ft 200 kts 249°
2026-05-03 20:40 50.03144 8.52934 1747 ft 222 kts 250°
2026-05-03 20:41 50.02607 8.50606 2923 ft 232 kts 250°
2026-05-03 20:41 50.02058 8.48307 4306 ft 219 kts 248°
2026-05-03 20:41 50.01543 8.46179 5524 ft 209 kts 248°
2026-05-03 20:41 50.01380 8.44080 5952 ft 236 kts 275°
2026-05-03 20:42 50.01890 8.41532 6334 ft 251 kts 276°
2026-05-03 20:42 50.02056 8.38829 7037 ft 253 kts 263°
2026-05-03 20:42 50.01921 8.36090 7921 ft 255 kts 258°
2026-05-03 20:42 50.01696 8.33680 8757 ft 256 kts 256°
2026-05-03 20:43 50.01397 8.30941 9678 ft 259 kts 256°
2026-05-03 20:43 50.01333 8.28098 10304 ft 275 kts 275°
2026-05-03 20:43 50.01973 8.25125 10585 ft 307 kts 290°
2026-05-03 20:43 50.02924 8.21985 10805 ft 335 kts 291°
2026-05-03 20:44 50.03926 8.18631 11210 ft 354 kts 291°
2026-05-03 20:44 50.04963 8.15113 11984 ft 362 kts 291°
2026-05-03 20:44 50.06061 8.11569 12659 ft 366 kts 297°
2026-05-03 20:44 50.07560 8.08302 13026 ft 373 kts 306°
2026-05-03 20:45 50.09228 8.05166 13095 ft 378 kts 307°
2026-05-03 20:45 50.10929 8.02023 13830 ft 379 kts 307°
2026-05-03 20:45 50.12548 7.98993 14469 ft 381 kts 306°
2026-05-03 20:45 50.14232 7.95788 15084 ft 384 kts 306°
2026-05-03 20:46 50.15346 7.93640 15460 ft 386 kts 305°
2026-05-03 20:46 50.17591 7.89273 16176 ft 392 kts 304°
2026-05-03 20:46 50.19301 7.85928 16749 ft 396 kts 304°
2026-05-03 20:46 50.21025 7.82555 17319 ft 399 kts 304°
2026-05-03 20:47 50.22764 7.79149 17928 ft 403 kts 304°
2026-05-03 20:47 50.23698 7.77317 18240 ft 404 kts 303°
2026-05-03 20:47 50.25418 7.74278 18624 ft 411 kts 314°
2026-05-03 20:47 50.27891 7.71893 18974 ft 425 kts 333°
2026-05-03 20:48 50.30659 7.70184 19385 ft 430 kts 333°
2026-05-03 20:48 50.33275 7.68482 19816 ft 432 kts 332°
2026-05-03 20:48 50.36835 7.66052 20469 ft 435 kts 331°
2026-05-03 20:48 50.39615 7.64132 20949 ft 438 kts 331°
2026-05-03 20:49 50.41507 7.62825 21270 ft 441 kts 331°
2026-05-03 20:49 50.44320 7.60886 21743 ft 444 kts 331°
2026-05-03 20:49 50.47124 7.58954 22184 ft 447 kts 331°
2026-05-03 20:49 50.49984 7.56982 22626 ft 451 kts 331°
2026-05-03 20:50 50.52863 7.54995 23075 ft 454 kts 331°
2026-05-03 20:50 50.55762 7.52979 23528 ft 456 kts 329°
2026-05-03 20:50 50.58538 7.50604 23873 ft 454 kts 322°
2026-05-03 20:50 50.61172 7.47850 24256 ft 455 kts 320°
2026-05-03 20:51 50.63772 7.44990 24684 ft 457 kts 320°
2026-05-03 20:51 50.66401 7.42146 25090 ft 459 kts 321°
2026-05-03 20:51 50.69036 7.39394 25468 ft 462 kts 322°
2026-05-03 20:51 50.71736 7.36624 25838 ft 465 kts 322°
2026-05-03 20:52 50.74281 7.33543 26091 ft 458 kts 308°
2026-05-03 20:52 50.76110 7.29525 26348 ft 446 kts 291°
2026-05-03 20:52 50.77434 7.25097 26635 ft 448 kts 290°
2026-05-03 20:52 50.78799 7.20647 26961 ft 451 kts 291°
2026-05-03 20:53 50.80209 7.16199 27340 ft 454 kts 292°
2026-05-03 20:53 50.81644 7.11749 27724 ft 455 kts 292°
2026-05-03 20:53 50.83092 7.07283 28070 ft 458 kts 292°
2026-05-03 20:53 50.84525 7.02853 28494 ft 458 kts 292°
2026-05-03 20:54 50.85911 6.98557 28971 ft 457 kts 292°
2026-05-03 20:54 50.88808 6.89545 29526 ft 463 kts 292°
2026-05-03 20:54 50.90271 6.84997 29829 ft 464 kts 292°
2026-05-03 20:55 50.91733 6.80455 30234 ft 462 kts 292°
2026-05-03 20:55 50.93188 6.75926 30614 ft 460 kts 292°
2026-05-03 20:55 50.94640 6.71397 30928 ft 461 kts 292°
2026-05-03 20:55 50.96087 6.66868 31209 ft 461 kts 292°
2026-05-03 20:56 50.97535 6.62329 31508 ft 461 kts 292°
2026-05-03 20:56 50.98975 6.57807 31994 ft 456 kts 291°
2026-05-03 20:56 51.00373 6.53414 32479 ft 451 kts 291°
2026-05-03 20:56 51.01784 6.48968 32776 ft 451 kts 291°
2026-05-03 20:57 51.03193 6.44514 32995 ft 452 kts 291°
2026-05-03 20:57 51.04601 6.40052 33255 ft 451 kts 291°
2026-05-03 20:57 51.06006 6.35599 33546 ft 450 kts 291°
2026-05-03 20:57 51.07405 6.31155 33840 ft 449 kts 291°
2026-05-03 20:58 51.10211 6.22220 33952 ft 453 kts 291°
2026-05-03 20:58 51.12978 6.13341 33980 ft 447 kts 289°
2026-05-03 20:59 51.14901 6.04950 33959 ft 435 kts 279°
2026-05-03 20:59 51.16266 5.96058 33965 ft 434 kts 279°
2026-05-03 21:00 51.17537 5.88319 33959 ft 436 kts 283°
2026-05-03 21:00 51.20292 5.78108 33967 ft 445 kts 294°